Retour au catalogue

COSMOS 1823 DEB

ActifLEO
NORAD 18731·DEBRIS·🇷🇺 Russia

Lancé Feb 20, 1987 depuis Plesetsk Cosmodrome

Loading…

Prochains Passages (prochaines 24 heures)

TLE

FraisSource: Space-Track

Époque: Sep 14, 2026, 02:43 UTC

1 18731U 87020J   26257.11360212  .00000067  00000-0  59938-3 0  9995
2 18731  73.6241 267.0125 0017552  13.5195  46.3164 12.44132290757463

Suivez COSMOS 1823 DEB en temps réel avec AllMySat

Download on the App Store